Tracking 30918 objects as of 2-Jul-2025
HD Live streaming from Space Station
objects crossing your sky now

ONEWEB-0345

Track ONEWEB-0345 now!
10-day predictions
ONEWEB-0345 is classified as:


NORAD ID: 49211
Int'l Code: 2021-083AB
Perigee: 1,215.5 km
Apogee: 1,218.3 km
Inclination: 87.9 °
Period: 109.6 minutes
Semi major axis: 7587 km
RCS: Unknown
Launch date: September 14, 2021
Source: United Kingdom (UK)
Launch site: TYURATAM MISSILE AND SPACE COMPLEX (TTMTR)
Your satellite tracking list
ONEWEB-0083
Track 1 satellite(s)




NASA's NSSDC Master Catalog

Two Line Element Set (TLE):
1 49211U 21083AB  25182.84680729 -.00000084  00000-0 -26380-3 0  9999
2 49211  87.8959  29.8430 0001892  71.0562 289.0772 13.13470878184912
Source of the keplerian elements: AFSPC